Terug naar catalogus

STARLINK-35766

ActiefCommunicatieVLEO
NORAD 67181·PAYLOAD·🇺🇸 United States

Gelanceerd Dec 17, 2025 vanaf Cape Canaveral Space Force Station

Loading…

Volgende Passages (komende 24 uur)

TLE

VersSource: CelesTrak SupGP

Epoch: Sep 14, 2026, 20:52 UTC

1 67181C 25303U   26257.86993056 -.00030713  00000+0 -11124-2 0  2577
2 67181  43.0023 322.1043 0001401 271.4784 329.8755 15.27593361    13

Volg STARLINK-35766 in realtime met AllMySat

Download on the App Store